period_start,C,m1,H,J0,J1,J2,J3,J4,J5,JA,JB,JC,JD,JJ,JK,JN,#
2018-08-17 00:04:16,0.12,8.71,0.00,28.70,32.59,35.28,13.74,53.53,1015.15,1997.97,1297.04,1588.46,1728.03,600.08,583.98,20.85,0000 0000 0000 0000 000000
2018-08-17 00:09:18,0.04,8.71,0.00,28.70,32.56,35.26,13.78,53.60,1015.15,1997.98,1296.79,1588.01,1727.88,600.36,584.26,20.90,0000 0000 0000 0000 000000
2018-08-17 00:14:19,0.04,8.71,0.00,28.67,32.55,35.25,13.78,53.67,1015.16,1997.99,1296.25,1588.00,1727.79,600.19,584.10,20.95,0000 0000 0000 0000 000000
2018-08-17 00:19:20,0.02,8.71,0.00,28.67,32.52,35.23,13.74,53.65,1015.16,1997.99,1296.01,1588.00,1727.48,600.06,583.99,21.00,0000 0000 0000 0000 000000
2018-08-17 00:24:21,0.00,8.71,0.00,28.65,32.51,35.20,13.75,53.72,1015.19,1997.99,1296.00,1587.98,1727.32,599.97,583.97,21.05,0000 0000 0000 0000 000000
2018-08-17 00:29:23,-0.01,8.71,0.00,28.65,32.49,35.19,13.81,53.54,1015.22,1997.99,1296.00,1587.99,1727.40,600.18,584.18,21.10,0000 0000 0000 0000 000000
2018-08-17 00:34:24,-0.00,8.71,0.00,28.65,32.47,35.17,13.74,53.71,1015.16,1998.00,1296.00,1587.99,1727.54,600.19,584.24,21.15,0000 0000 0000 0000 000000
2018-08-17 00:39:26,0.00,8.71,0.00,28.63,32.46,35.17,13.80,53.74,1015.16,1998.02,1296.00,1587.99,1727.68,600.18,584.27,21.20,0000 0000 0000 0000 000000
2018-08-17 00:44:27,-0.00,8.71,0.00,28.62,32.45,35.16,13.78,53.68,1015.16,1998.10,1296.00,1587.99,1727.91,600.00,584.11,21.25,0000 0000 0000 0000 000000
2018-08-17 00:49:28,0.02,8.72,0.00,28.62,32.43,35.14,13.77,53.66,1015.15,1998.31,1296.00,1588.00,1727.98,600.08,584.24,21.30,0000 0000 0000 0000 000000
2018-08-17 00:54:30,0.08,8.72,0.00,28.62,32.42,35.09,13.73,53.58,1015.17,1998.68,1296.00,1588.00,1727.98,599.67,583.78,21.35,0000 0000 0000 0000 000000
2018-08-17 00:59:31,0.00,8.72,0.00,28.62,32.40,35.03,13.72,53.77,1015.34,1998.82,1296.00,1588.01,1727.99,600.00,584.19,21.40,0000 0000 0000 0000 000000
2018-08-17 01:04:32,0.01,8.72,0.00,28.61,32.40,35.00,13.77,53.67,1015.48,1998.91,1296.00,1588.02,1727.99,599.92,584.09,21.45,0000 0000 0000 0000 000000
2018-08-17 01:09:33,0.00,8.72,0.00,28.60,32.38,35.06,13.70,53.67,1015.49,1998.96,1296.00,1588.03,1727.99,599.98,584.27,21.50,0000 0000 0000 0000 000000
2018-08-17 01:14:34,0.00,8.72,0.00,28.60,32.37,35.02,13.79,53.63,1015.60,1998.98,1295.99,1588.03,1727.99,599.92,584.29,21.55,0000 0000 0000 0000 000000
2018-08-17 01:19:35,0.00,8.72,0.00,28.60,32.35,34.93,13.74,53.63,1015.21,1998.99,1295.96,1588.04,1727.99,600.03,584.20,21.60,0000 0000 0000 0000 000000
2018-08-17 01:24:36,0.00,8.72,0.00,28.60,32.35,34.94,13.74,53.57,1015.28,1998.99,1295.93,1588.02,1727.99,600.00,584.20,21.65,0000 0000 0000 0000 000000
2018-08-17 01:29:38,0.00,8.72,0.00,28.60,32.33,34.90,13.76,53.49,1015.60,1999.00,1295.93,1588.08,1727.99,600.12,584.55,21.70,0000 0000 0000 0000 000000
2018-08-17 01:34:39,0.02,8.72,0.00,28.59,32.32,34.85,13.65,53.57,1015.44,1999.00,1295.74,1588.06,1727.99,599.66,584.03,21.75,0000 0000 0000 0000 000000
2018-08-17 01:39:40,0.00,8.72,0.00,28.57,32.32,34.86,13.69,53.54,1015.44,1999.00,1295.61,1588.12,1727.99,599.92,584.26,21.80,0000 0000 0000 0000 000000
2018-08-17 01:44:41,0.01,8.72,0.00,28.57,32.30,34.83,13.75,53.62,1015.63,1999.02,1295.62,1588.13,1727.99,599.91,584.45,21.85,0000 0000 0000 0000 000000
2018-08-17 01:49:43,0.03,8.72,0.00,28.57,32.30,34.80,13.70,53.70,1015.63,1999.02,1295.28,1588.09,1727.99,599.67,584.15,21.90,0000 0000 0000 0000 000000
2018-08-17 01:54:44,0.01,8.72,0.00,28.57,32.29,34.80,13.70,53.56,1015.36,1999.06,1295.13,1588.11,1727.99,599.73,584.07,21.95,0000 0000 0000 0000 000000
2018-08-17 01:59:45,0.01,8.72,0.00,28.57,32.27,34.80,13.73,53.58,1015.52,1999.13,1295.08,1588.14,1727.99,600.00,584.42,22.00,0000 0000 0000 0000 000000
2018-08-17 02:04:47,0.01,8.72,0.00,28.55,32.27,34.80,13.83,53.57,1015.52,1999.17,1295.02,1588.12,1727.99,600.23,584.56,22.05,0000 0000 0000 0000 000000
2018-08-17 02:09:48,0.03,8.73,0.00,28.56,32.26,34.78,13.74,53.65,1015.44,1999.34,1295.01,1588.14,1727.99,600.03,584.43,22.10,0000 0000 0000 0000 000000
2018-08-17 02:14:49,-0.01,8.73,0.00,28.56,32.25,34.77,13.70,53.55,1015.41,1999.29,1295.00,1588.11,1727.99,599.95,584.27,22.15,0000 0000 0000 0000 000000
2018-08-17 02:19:50,0.00,8.73,0.00,28.56,32.25,34.75,13.74,53.60,1015.61,1999.34,1295.00,1588.04,1727.99,599.76,584.16,22.20,0000 0000 0000 0000 000000
2018-08-17 02:24:51,0.01,8.73,0.00,28.55,32.25,34.75,13.67,53.55,1015.64,1999.38,1295.00,1588.04,1727.98,599.81,584.38,22.25,0000 0000 0000 0000 000000
2018-08-17 02:29:52,0.00,8.73,0.00,28.55,32.24,34.74,13.70,53.62,1015.64,1999.37,1294.98,1588.00,1727.97,599.72,584.36,22.30,0000 0000 0000 0000 000000
2018-08-17 02:34:53,0.04,8.73,0.00,28.55,32.22,34.73,13.76,53.50,1015.63,1999.62,1294.94,1588.00,1727.97,600.10,584.50,22.35,0000 0000 0000 0000 000000
2018-08-17 02:39:55,0.06,8.73,0.00,28.55,32.22,34.73,13.70,53.55,1015.57,1999.84,1294.68,1588.00,1727.94,599.92,584.40,22.40,0000 0000 0000 0000 000000
2018-08-17 02:44:56,0.02,8.73,0.00,28.55,32.22,34.71,13.67,53.56,1015.53,1999.90,1294.34,1588.00,1727.91,599.99,584.51,22.45,0000 0000 0000 0000 000000
2018-08-17 02:49:57,0.04,8.73,0.00,28.55,32.22,34.72,13.76,53.56,1015.64,1999.94,1294.07,1588.00,1727.67,600.20,584.45,22.50,0000 0000 0000 0000 000000
2018-08-17 02:54:59,0.01,8.74,0.00,28.55,32.20,34.70,13.78,53.63,1015.64,1999.95,1294.00,1588.00,1727.36,599.67,584.08,22.55,0000 0000 0000 0000 000000
2018-08-17 03:00:00,0.01,8.74,0.00,28.53,32.20,34.70,13.72,53.63,1015.65,1999.93,1294.00,1588.00,1727.13,599.72,584.37,22.60,0000 0000 0000 0000 000000
2018-08-17 03:05:01,0.01,8.74,0.00,28.52,32.20,34.69,13.70,53.63,1015.64,1999.96,1293.97,1588.00,1727.04,599.77,584.30,22.65,0000 0000 0000 0000 000000
2018-08-17 03:10:03,0.03,8.74,0.00,28.52,32.20,34.69,13.75,53.58,1015.64,1999.97,1293.72,1587.98,1727.01,600.03,584.58,22.70,0000 0000 0000 0000 000000
2018-08-17 03:15:04,0.04,8.74,0.00,28.52,32.18,34.69,13.75,53.58,1015.64,1999.97,1293.14,1587.97,1727.00,600.09,584.68,22.75,0000 0000 0000 0000 000000
2018-08-17 03:20:05,0.01,8.74,0.00,28.52,32.17,34.68,13.69,53.61,1015.57,1999.99,1293.03,1587.96,1727.00,599.94,584.51,22.80,0000 0000 0000 0000 000000
2018-08-17 03:25:07,0.00,8.74,0.00,28.52,32.17,34.68,13.70,53.57,1015.59,1999.99,1293.00,1587.92,1727.00,600.13,584.59,22.85,0000 0000 0000 0000 000000
2018-08-17 03:30:07,0.01,8.74,0.00,28.52,32.17,34.67,13.76,53.65,1015.55,1999.99,1293.00,1587.80,1727.00,599.84,584.60,22.90,0000 0000 0000 0000 000000
2018-08-17 03:35:09,0.02,8.74,0.00,28.52,32.16,34.67,13.78,53.67,1015.60,1999.99,1292.97,1587.64,1727.00,599.99,584.53,22.95,0000 0000 0000 0000 000000
2018-08-17 03:40:10,0.04,8.74,0.00,28.52,32.15,34.65,13.73,53.71,1015.57,1999.99,1292.79,1587.27,1726.99,600.36,584.87,23.00,0000 0000 0000 0000 000000
2018-08-17 03:45:11,0.06,8.75,0.00,28.52,32.15,34.65,13.83,53.66,1015.64,1999.99,1292.26,1587.12,1726.97,600.08,584.62,23.05,0000 0000 0000 0000 000000
2018-08-17 03:50:13,0.01,8.75,0.00,28.52,32.15,34.65,13.73,53.68,1015.60,1999.99,1292.04,1587.04,1726.94,600.14,584.65,23.10,0000 0000 0000 0000 000000
2018-08-17 03:55:13,0.00,8.75,0.00,28.52,32.15,34.63,13.71,53.65,1015.50,1999.99,1292.00,1587.03,1726.88,600.04,584.52,23.15,0000 0000 0000 0000 000000
2018-08-17 04:00:15,0.01,8.75,0.00,28.52,32.15,34.63,13.72,53.68,1015.37,1999.99,1292.00,1587.01,1726.66,599.96,584.38,23.20,0000 0000 0000 0000 000000
2018-08-17 04:05:16,0.01,8.75,0.00,28.52,32.14,34.63,13.72,53.75,1015.35,1999.99,1291.99,1587.00,1726.27,599.94,584.42,23.25,0000 0000 0000 0000 000000
2018-08-17 04:10:17,0.01,8.75,0.00,28.52,32.13,34.62,13.71,53.72,1015.24,1999.99,1291.89,1587.00,1726.08,599.64,584.01,23.30,0000 0000 0000 0000 000000
2018-08-17 04:15:18,0.04,8.75,0.00,28.52,32.13,34.61,13.75,53.77,1015.31,1999.99,1291.39,1587.00,1726.02,600.23,584.69,23.35,0000 0000 0000 0000 000000
2018-08-17 04:20:19,0.02,8.75,0.00,28.52,32.13,34.62,13.73,53.79,1015.38,1999.99,1291.07,1586.99,1726.00,599.99,584.33,23.40,0000 0000 0000 0000 000000
2018-08-17 04:25:20,0.00,8.75,0.00,28.52,32.12,34.61,13.70,53.81,1015.25,1999.99,1291.00,1586.98,1726.00,600.00,584.36,23.45,0000 0000 0000 0000 000000
2018-08-17 04:30:22,0.00,8.75,0.00,28.52,32.12,34.60,13.79,53.78,1015.21,1999.99,1290.99,1586.96,1726.00,600.25,584.66,23.50,0000 0000 0000 0000 000000
2018-08-17 04:35:23,0.04,8.76,0.00,28.52,32.12,34.60,13.77,53.85,1015.25,2000.00,1290.75,1586.86,1725.99,600.25,584.44,23.55,0000 0000 0000 0000 000000
2018-08-17 04:40:24,0.06,8.76,0.00,28.52,32.12,34.60,13.82,53.84,1015.18,2000.00,1290.19,1586.51,1725.93,600.12,584.40,23.60,0000 0000 0000 0000 000000
2018-08-17 04:45:25,0.05,8.76,0.00,28.52,32.12,34.61,13.75,53.83,1015.16,2000.01,1290.02,1586.18,1725.60,599.84,584.13,23.65,0000 0000 0000 0000 000000
2018-08-17 04:50:26,0.02,8.76,0.00,28.53,32.12,34.60,13.75,53.93,1015.16,2000.02,1289.99,1586.01,1725.07,599.90,584.20,23.70,0000 0000 0000 0000 000000
2018-08-17 04:55:27,0.03,8.76,0.00,28.54,32.12,34.61,13.65,53.83,1015.15,2000.00,1289.71,1586.00,1725.00,599.80,584.12,23.75,0000 0000 0000 0000 000000
2018-08-17 05:00:29,0.03,8.77,0.00,28.55,32.12,34.60,13.67,53.78,1015.15,2000.01,1289.14,1585.99,1725.00,600.15,584.33,23.80,0000 0000 0000 0000 000000
2018-08-17 05:05:30,0.01,8.77,0.00,28.55,32.12,34.60,13.74,53.71,1015.15,2000.01,1289.00,1585.94,1724.99,600.02,584.25,23.85,0000 0000 0000 0000 000000
2018-08-17 05:10:31,0.02,8.77,0.00,28.55,32.12,34.60,13.79,53.77,1015.15,2000.01,1288.98,1585.80,1724.82,600.36,584.43,23.90,0000 0000 0000 0000 000000
2018-08-17 05:15:32,0.09,8.77,0.00,28.55,32.12,34.60,13.78,53.79,1015.15,2000.01,1288.76,1585.25,1724.20,600.00,584.28,23.95,0000 0000 0000 0000 000000
2018-08-17 05:20:33,0.06,8.78,0.00,28.57,32.12,34.59,13.75,53.82,1015.15,2000.03,1288.09,1585.04,1724.02,600.12,584.36,24.00,0000 0000 0000 0000 000000
2018-08-17 05:25:34,0.00,8.78,0.00,28.57,32.12,34.59,13.76,53.76,1015.07,2000.02,1288.00,1585.00,1724.00,600.10,584.21,24.05,0000 0000 0000 0000 000000
2018-08-17 05:30:36,0.00,8.78,0.00,28.57,32.12,34.59,13.66,53.83,1014.79,2000.04,1287.97,1585.00,1724.00,599.72,583.78,24.10,0000 0000 0000 0000 000000
2018-08-17 05:35:37,0.05,8.78,0.00,28.57,32.12,34.59,13.76,53.81,1014.68,2000.03,1287.54,1584.99,1723.96,600.08,583.91,24.15,0000 0000 0000 0000 000000
2018-08-17 05:40:39,0.02,8.78,0.00,28.57,32.11,34.60,13.66,53.78,1014.66,2000.03,1287.06,1584.97,1723.84,600.04,583.83,24.20,0000 0000 0000 0000 000000
2018-08-17 05:45:40,0.04,8.78,0.00,28.57,32.11,34.59,13.76,53.78,1014.69,2000.03,1287.00,1584.86,1723.29,600.01,583.95,24.25,0000 0000 0000 0000 000000
2018-08-17 05:50:41,0.02,8.78,0.00,28.57,32.10,34.59,13.76,53.66,1014.73,2000.02,1287.00,1584.59,1723.07,599.93,583.94,24.30,0000 0000 0000 0000 000000
2018-08-17 05:55:42,0.04,8.79,0.00,28.57,32.10,34.59,13.74,53.74,1014.69,2000.09,1286.74,1584.37,1723.03,600.19,584.12,24.35,0000 0000 0000 0000 000000
2018-08-17 06:00:44,0.06,8.79,0.00,28.59,32.10,34.58,13.74,53.69,1014.68,2000.22,1286.25,1584.29,1723.02,599.89,583.82,24.41,0000 0000 0000 0000 000000
2018-08-17 06:05:45,0.00,8.79,0.00,28.60,32.10,34.59,13.74,53.78,1014.67,2000.07,1286.08,1584.04,1723.00,600.06,583.94,24.45,0000 0000 0000 0000 000000
2018-08-17 06:10:46,0.01,8.79,0.00,28.60,32.10,34.58,13.79,53.85,1014.66,2000.09,1286.00,1584.01,1723.00,600.22,583.99,24.51,0000 0000 0000 0000 000000
2018-08-17 06:15:48,-0.00,8.79,0.00,28.60,32.10,34.59,13.65,53.84,1014.56,2000.07,1286.00,1584.00,1722.98,599.76,583.58,24.56,0000 0000 0000 0000 000000
2018-08-17 06:20:49,-0.00,8.79,0.00,28.60,32.10,34.59,13.70,53.84,1014.59,2000.08,1286.00,1584.00,1722.96,599.99,583.82,24.61,0000 0000 0000 0000 000000
2018-08-17 06:25:50,0.01,8.79,0.00,28.62,32.10,34.58,13.71,53.98,1014.66,2000.09,1285.98,1584.00,1722.91,599.83,583.71,24.66,0000 0000 0000 0000 000000
2018-08-17 06:30:51,0.01,8.79,0.00,28.62,32.10,34.59,13.68,53.97,1014.64,2000.04,1285.92,1583.99,1722.68,599.72,583.39,24.71,0000 0000 0000 0000 000000
2018-08-17 06:35:53,0.02,8.79,0.00,28.62,32.10,34.58,13.68,53.97,1014.64,2000.07,1285.70,1583.99,1722.47,599.69,583.66,24.76,0000 0000 0000 0000 000000
2018-08-17 06:40:54,0.02,8.80,0.00,28.62,32.11,34.59,13.75,53.92,1014.39,2000.11,1285.49,1583.99,1722.27,599.96,583.61,24.81,0000 0000 0000 0000 000000
2018-08-17 06:45:55,0.03,8.80,0.00,28.65,32.12,34.59,13.75,53.98,1014.57,2000.10,1285.14,1583.98,1722.12,600.07,583.79,24.86,0000 0000 0000 0000 000000
2018-08-17 06:50:56,0.01,8.80,0.00,28.65,32.12,34.59,13.61,53.86,1014.66,2000.08,1285.05,1583.95,1722.04,599.70,583.58,24.91,0000 0000 0000 0000 000000
2018-08-17 06:55:58,0.00,8.80,0.00,28.65,32.12,34.59,13.73,53.92,1014.66,2000.08,1285.00,1583.92,1722.03,599.90,583.63,24.96,0000 0000 0000 0000 000000
2018-08-17 07:00:59,0.01,8.80,0.00,28.66,32.12,34.60,13.73,53.97,1014.66,2000.06,1285.00,1583.81,1722.00,600.02,583.81,25.01,0000 0000 0000 0000 000000
2018-08-17 07:06:01,0.03,8.80,0.00,28.67,32.12,34.60,13.65,53.98,1014.66,2000.00,1285.00,1583.26,1722.00,599.83,583.58,25.06,0000 0000 0000 0000 000000
2018-08-17 07:11:02,0.02,8.80,0.00,28.67,32.12,34.60,13.71,53.87,1014.66,2000.08,1284.96,1583.20,1722.00,600.24,583.87,25.11,0000 0000 0000 0000 000000
2018-08-17 07:16:03,0.01,8.80,0.00,28.67,32.12,34.61,13.75,53.95,1014.66,2000.12,1284.92,1583.16,1722.00,599.97,583.73,25.16,0000 0000 0000 0000 000000
2018-08-17 07:21:05,0.01,8.80,0.00,28.67,32.13,34.62,13.73,53.91,1014.63,2000.10,1284.80,1583.12,1721.99,599.85,583.59,25.21,0000 0000 0000 0000 000000
2018-08-17 07:26:06,0.03,8.80,0.00,28.67,32.14,34.62,13.68,53.92,1014.29,2000.12,1284.51,1583.08,1721.99,599.94,583.28,25.26,0000 0000 0000 0000 000000
2018-08-17 07:31:07,0.02,8.80,0.00,28.67,32.14,34.62,13.75,53.93,1014.26,2000.05,1284.16,1583.01,1721.92,600.12,583.64,25.31,0000 0000 0000 0000 000000
2018-08-17 07:36:09,0.01,8.81,0.00,28.68,32.15,34.62,13.76,53.88,1014.22,2000.04,1284.01,1583.00,1721.87,600.01,583.47,25.36,0000 0000 0000 0000 000000
2018-08-17 07:41:10,0.01,8.81,0.00,28.68,32.15,34.63,13.68,53.82,1014.37,2000.04,1284.00,1583.00,1721.53,599.86,583.37,25.41,0000 0000 0000 0000 000000
2018-08-17 07:46:11,0.01,8.81,0.00,28.67,32.15,34.62,13.78,53.88,1014.60,2000.02,1284.00,1583.00,1721.13,600.12,583.76,25.46,0000 0000 0000 0000 000000
2018-08-17 07:51:12,-0.00,8.81,0.00,28.67,32.15,34.63,13.64,53.93,1014.37,2000.01,1283.99,1583.00,1721.09,599.82,583.32,25.51,0000 0000 0000 0000 000000
2018-08-17 07:56:14,0.00,8.81,0.00,28.67,32.15,34.63,13.72,53.98,1014.20,2000.02,1283.97,1583.00,1721.05,600.05,583.49,25.56,0000 0000 0000 0000 000000
2018-08-17 08:01:15,0.01,8.81,0.00,28.67,32.15,34.63,13.70,53.97,1014.18,2000.02,1283.90,1582.97,1721.01,599.77,583.22,25.61,0000 0000 0000 0000 000000
2018-08-17 08:06:16,0.02,8.81,0.00,28.67,32.15,34.64,13.67,54.02,1014.22,2000.02,1283.69,1582.96,1721.00,600.19,583.68,25.66,0000 0000 0000 0000 000000
2018-08-17 08:11:17,0.03,8.81,0.00,28.67,32.15,34.64,13.72,53.95,1014.33,2000.02,1283.31,1582.92,1721.00,600.02,583.53,25.71,0000 0000 0000 0000 000000
2018-08-17 08:16:19,0.01,8.81,0.00,28.67,32.15,34.63,13.72,53.92,1014.19,2000.03,1283.11,1582.91,1721.00,600.17,583.55,25.76,0000 0000 0000 0000 000000
2018-08-17 08:21:20,0.04,8.81,0.00,28.67,32.15,34.64,13.78,54.01,1014.18,2000.02,1283.03,1582.60,1721.00,600.22,583.63,25.81,0000 0000 0000 0000 000000
2018-08-17 08:26:21,0.01,8.81,0.00,28.67,32.15,34.65,13.72,53.96,1014.19,2000.02,1283.00,1582.33,1721.00,599.94,583.41,25.86,0000 0000 0000 0000 000000
2018-08-17 08:31:22,0.01,8.81,0.00,28.67,32.15,34.65,13.79,53.92,1014.21,2000.02,1283.00,1582.19,1720.98,599.99,583.56,25.91,0000 0000 0000 0000 000000
2018-08-17 08:36:23,0.01,8.81,0.00,28.65,32.15,34.66,13.76,53.92,1014.49,2000.02,1283.00,1582.11,1720.95,600.22,583.84,25.96,0000 0000 0000 0000 000000
2018-08-17 08:41:24,0.07,8.82,0.00,28.65,32.15,34.66,13.74,53.97,1014.65,2000.02,1282.58,1582.01,1720.32,600.22,583.97,26.01,0000 0000 0000 0000 000000
2018-08-17 08:46:26,0.03,8.82,0.00,28.64,32.15,34.66,13.73,53.91,1014.66,2000.02,1282.15,1582.00,1720.05,599.97,583.76,26.06,0000 0000 0000 0000 000000
2018-08-17 08:51:27,0.00,8.82,0.00,28.62,32.15,34.66,13.75,54.02,1014.44,2000.01,1282.04,1582.00,1720.00,600.02,583.68,26.11,0000 0000 0000 0000 000000
2018-08-17 08:56:28,0.00,8.82,0.00,28.60,32.15,34.66,13.69,53.95,1014.23,2000.01,1282.00,1581.99,1720.00,599.87,583.47,26.16,0000 0000 0000 0000 000000
2018-08-17 09:01:29,0.00,8.82,0.00,28.60,32.15,34.66,13.72,53.97,1014.21,2000.01,1282.00,1581.99,1720.00,599.82,583.60,26.21,0000 0000 0000 0000 000000
2018-08-17 09:06:31,0.00,8.82,0.00,28.59,32.15,34.66,13.71,53.83,1014.18,2000.01,1281.97,1581.98,1720.00,600.03,583.51,26.26,0000 0000 0000 0000 000000
2018-08-17 09:11:32,0.01,8.82,0.00,28.57,32.15,34.66,13.65,53.98,1014.17,2000.03,1281.95,1581.95,1720.00,599.80,583.35,26.31,0000 0000 0000 0000 000000
2018-08-17 09:16:33,0.03,8.82,0.00,28.56,32.13,34.66,13.71,54.00,1014.15,2000.04,1281.73,1581.90,1719.99,599.99,583.52,26.36,0000 0000 0000 0000 000000
2018-08-17 09:21:34,0.04,8.82,0.00,28.55,32.13,34.65,13.80,53.98,1014.12,2000.05,1281.22,1581.84,1719.99,599.97,583.60,26.41,0000 0000 0000 0000 000000
2018-08-17 09:26:35,0.03,8.83,0.00,28.53,32.12,34.65,13.76,53.95,1014.17,2000.04,1281.04,1581.63,1719.96,600.28,583.95,26.46,0000 0000 0000 0000 000000
2018-08-17 09:31:36,0.01,8.83,0.00,28.52,32.12,34.65,13.72,53.88,1014.15,2000.05,1281.00,1581.46,1719.97,599.94,583.71,26.51,0000 0000 0000 0000 000000
2018-08-17 09:36:38,0.02,8.83,0.00,28.50,32.10,34.63,13.80,53.90,1014.16,2000.20,1281.00,1581.47,1719.97,600.23,583.96,26.56,0000 0000 0000 0000 000000
2018-08-17 09:41:39,0.04,8.83,0.00,28.50,32.10,34.62,13.77,53.91,1014.17,2000.48,1281.00,1581.44,1719.96,600.34,584.19,26.61,0000 0000 0000 0000 000000
2018-08-17 09:46:40,0.01,8.83,0.00,28.48,32.10,34.63,13.74,53.91,1014.17,2000.47,1281.00,1581.20,1719.84,600.27,584.00,26.66,0000 0000 0000 0000 000000
2018-08-17 09:51:42,0.03,8.83,0.00,28.46,32.09,34.62,13.71,53.77,1014.17,2000.62,1280.96,1581.13,1719.73,599.84,583.77,26.71,0000 0000 0000 0000 000000
2018-08-17 09:56:43,0.03,8.83,0.00,28.45,32.07,34.62,13.75,53.90,1014.15,2000.76,1280.93,1581.08,1719.57,600.15,584.02,26.76,0000 0000 0000 0000 000000
2018-08-17 10:01:45,0.05,8.84,0.00,28.43,32.07,34.62,13.71,53.91,1014.15,2000.85,1280.71,1581.03,1719.38,600.04,583.92,26.81,0000 0000 0000 0000 000000
2018-08-17 10:06:46,0.05,8.84,0.00,28.42,32.06,34.61,13.74,53.91,1013.84,2000.95,1280.25,1581.02,1719.27,600.45,584.28,26.86,0000 0000 0000 0000 000000
2018-08-17 10:11:47,0.01,8.84,0.00,28.40,32.05,34.61,13.79,53.93,1013.70,2000.96,1280.03,1581.01,1719.14,600.01,583.69,26.91,0000 0000 0000 0000 000000
2018-08-17 10:16:48,0.01,8.84,0.00,28.39,32.05,34.61,13.74,53.89,1013.70,2000.97,1280.01,1581.00,1719.05,599.97,583.67,26.96,0000 0000 0000 0000 000000
2018-08-17 10:21:50,0.00,8.84,0.00,28.37,32.03,34.61,13.74,53.88,1013.69,2000.98,1280.00,1581.00,1719.02,600.12,583.86,27.01,0000 0000 0000 0000 000000
2018-08-17 10:26:51,0.00,8.84,0.00,28.35,32.02,34.59,13.64,53.87,1013.70,2000.98,1279.99,1581.00,1719.00,599.80,583.68,27.06,0000 0000 0000 0000 000000
2018-08-17 10:31:52,0.00,8.84,0.00,28.33,32.01,34.58,13.80,53.82,1013.69,2000.98,1279.98,1581.00,1719.01,600.05,583.89,27.11,0000 0000 0000 0000 000000
2018-08-17 10:36:53,0.00,8.84,0.00,28.32,32.00,34.58,13.70,53.88,1013.69,2000.99,1279.94,1581.00,1719.00,599.59,583.43,27.16,0000 0000 0000 0000 000000
2018-08-17 10:41:55,0.01,8.84,0.00,28.30,32.00,34.58,13.69,53.83,1013.69,2000.99,1279.78,1581.00,1719.00,599.92,583.80,27.21,0000 0000 0000 0000 000000
2018-08-17 10:46:56,0.04,8.84,0.00,28.28,31.98,34.60,13.72,53.86,1013.69,2000.99,1279.40,1581.00,1719.00,599.65,583.64,27.26,0000 0000 0000 0000 000000
2018-08-17 10:51:57,0.01,8.84,0.00,28.27,31.97,34.54,13.73,53.83,1013.69,2000.99,1279.07,1581.00,1719.00,600.08,583.96,27.31,0000 0000 0000 0000 000000
2018-08-17 10:56:59,0.00,8.84,0.00,28.25,31.95,34.55,13.73,53.83,1013.69,2000.99,1279.02,1581.00,1719.00,600.06,584.10,27.36,0000 0000 0000 0000 000000
2018-08-17 11:02:00,0.00,8.85,0.00,28.24,31.95,34.58,13.73,53.88,1013.69,2000.99,1279.00,1581.00,1719.00,599.63,583.65,27.41,0000 0000 0000 0000 000000
2018-08-17 11:07:01,0.00,8.85,0.00,28.22,31.94,34.56,13.81,53.76,1013.69,2001.03,1279.00,1581.00,1719.00,600.14,584.07,27.46,0000 0000 0000 0000 000000
2018-08-17 11:12:03,0.01,8.85,0.00,28.20,31.92,34.62,13.71,53.76,1013.69,2001.09,1279.00,1580.99,1718.99,600.05,584.09,27.51,0000 0000 0000 0000 000000
2018-08-17 11:17:04,0.01,8.85,0.00,28.18,31.91,34.62,13.79,53.70,1013.68,2001.19,1279.00,1580.99,1718.99,600.26,584.35,27.56,0000 0000 0000 0000 000000
2018-08-17 11:22:06,0.03,8.85,0.00,28.17,31.90,34.63,13.78,53.84,1013.64,2001.39,1278.99,1580.99,1718.98,600.18,584.21,27.61,0000 0000 0000 0000 000000
2018-08-17 11:27:07,0.03,8.85,0.00,28.15,31.89,34.55,13.75,53.75,1013.54,2001.61,1278.96,1580.97,1718.97,600.13,584.13,27.66,0000 0000 0000 0000 000000
2018-08-17 11:32:08,0.02,8.85,0.00,28.13,31.87,34.53,13.73,53.70,1013.60,2001.76,1278.93,1580.96,1718.98,600.07,584.17,27.71,0000 0000 0000 0000 000000
2018-08-17 11:37:10,0.06,8.85,0.00,28.12,31.86,34.56,13.73,53.81,1013.62,2001.89,1278.59,1580.97,1718.94,600.26,584.48,27.76,0000 0000 0000 0000 000000
2018-08-17 11:42:11,0.01,8.85,0.00,28.10,31.85,34.57,13.75,53.86,1013.50,2001.96,1278.31,1580.98,1718.94,599.80,583.97,27.81,0000 0000 0000 0000 000000
2018-08-17 11:47:12,0.02,8.86,0.00,28.08,31.84,34.56,13.78,53.83,1013.59,2001.98,1278.11,1580.96,1718.91,599.93,584.15,27.86,0000 0000 0000 0000 000000
2018-08-17 11:52:14,0.00,8.86,0.00,28.06,31.82,34.55,13.70,53.72,1013.52,2001.99,1278.02,1580.94,1718.92,599.84,584.11,27.91,0000 0000 0000 0000 000000
2018-08-17 11:57:15,0.01,8.86,0.00,28.05,31.81,34.50,13.70,53.77,1013.39,2001.99,1278.00,1580.93,1718.88,599.60,583.76,27.96,0000 0000 0000 0000 000000
2018-08-17 12:02:17,-0.00,8.86,0.00,28.03,31.80,34.53,13.72,53.72,1013.26,2001.99,1278.00,1580.95,1718.94,599.78,584.02,28.01,0000 0000 0000 0000 000000
2018-08-17 12:07:18,0.00,8.86,0.00,28.02,31.78,34.52,13.79,53.77,1013.21,2001.99,1278.00,1580.95,1718.93,599.79,583.95,28.06,0000 0000 0000 0000 000000
2018-08-17 12:12:19,0.00,8.86,0.00,28.00,31.77,34.48,13.82,53.83,1013.21,2002.02,1277.98,1580.94,1718.94,600.09,584.32,28.11,0000 0000 0000 0000 000000
2018-08-17 12:17:20,0.01,8.86,0.00,27.99,31.75,34.48,13.80,53.77,1013.20,2002.05,1277.96,1580.89,1718.91,600.23,584.45,28.16,0000 0000 0000 0000 000000
2018-08-17 12:22:21,0.02,8.86,0.00,27.97,31.74,34.46,13.73,53.81,1013.20,2002.12,1277.87,1580.86,1718.86,600.01,584.23,28.21,0000 0000 0000 0000 000000
2018-08-17 12:27:22,0.05,8.86,0.00,27.95,31.72,34.46,13.72,53.86,1013.20,2002.32,1277.73,1580.90,1718.79,599.95,584.23,28.26,0000 0000 0000 0000 000000
2018-08-17 12:32:24,0.06,8.86,0.00,27.94,31.70,34.43,13.79,53.87,1013.19,2002.52,1277.33,1580.86,1718.72,600.41,584.74,28.31,0000 0000 0000 0000 000000
2018-08-17 12:37:25,0.07,8.87,0.00,27.92,31.69,34.44,13.82,53.83,1013.14,2002.79,1277.12,1580.81,1718.57,600.01,584.40,28.36,0000 0000 0000 0000 000000
2018-08-17 12:42:27,0.00,8.87,0.00,27.90,31.67,34.42,13.75,53.87,1013.06,2002.91,1277.03,1580.83,1718.63,599.82,584.10,28.41,0000 0000 0000 0000 000000
2018-08-17 12:47:28,0.01,8.87,0.00,27.89,31.66,34.39,13.73,53.85,1012.84,2002.95,1277.01,1580.84,1718.55,600.19,584.35,28.46,0000 0000 0000 0000 000000
2018-08-17 12:52:29,0.02,8.87,0.00,27.87,31.65,34.37,13.72,53.81,1012.74,2002.98,1277.00,1580.76,1718.37,599.90,584.17,28.52,0000 0000 0000 0000 000000
2018-08-17 12:57:31,-0.00,8.87,0.00,27.86,31.62,34.38,13.70,53.78,1012.72,2002.99,1277.00,1580.71,1718.44,599.95,584.13,28.57,0000 0000 0000 0000 000000